[[{"header":{"parameterUnit":"m.s-1","parameterCategory":1,"la1":30.2991,"la2":30.254,"lo1":-89.0895,"lo2":-89.0444,"dy":0.0017,"dx":0.0017,"nx":28,"ny":28,"refTime":"2023-03-30T15:00:00:Z","depth":0,"parameterNumber":2,"parameterNumberName":"U-component_of_WINDS"},"data":[0,0,0,0,0,0,0,0,0,0,0,0,0,0,0,0,0,0,0,0,0,0,0,0,0,0,0,0,0,0,0,0,0,0,0,0,0,0,0,0,0,0,0,0,0,0,0,0,0,0,0,0,0,0,0,0,0,0,-1.0573,-1.0571,0,-1.0421,-1.0419,-1.0417,-1.0344,-1.0345,-1.0345,-1.0345,-1.0185,-1.0181,-1.0177,0,0,0,0,0,0,0,0,0,0,0,0,0,-1.0798,-1.0794,-1.0573,-1.0571,-1.0569,-1.0421,-1.0419,-1.0417,-1.0344,-1.0345,-1.0345,-1.0345,-1.0187,-1.0182,-1.0177,0,0,0,0,0,0,0,0,0,0,0,0,0,-1.0679,-1.0793,-1.0573,-1.0515,-1.0509,-1.0421,-1.0419,-1.0416,-1.0344,-1.0345,-1.0345,-1.0345,-1.0188,-1.0182,-1.0176,-1.0134,0,0,-1.0156,-1.0153,0,0,0,0,0,0,0,0,-1.0685,-1.067,-1.0526,-1.0519,-1.0512,-1.0402,-1.044,-1.0321,-1.0344,-1.0407,-1.0345,-1.0345,-1.0257,-1.0245,-1.0216,-1.0126,-1.0119,-1.0155,-1.0152,-1.0149,-1.0147,0,0,0,0,0,0,0,-1.0694,-1.0677,-1.0513,-1.0524,-1.0515,-1.0496,-1.0479,-1.0417,-1.0333,-1.0401,-1.0396,-1.0379,-1.0253,-1.0222,-1.0212,-1.0117,-1.0156,-1.015,-1.0146,-1.0143,-0.9984,-0.9983,0,0,0,0,0,0,-1.0712,-1.0684,-1.0518,-1.0508,-1.0601,-1.0492,-1.0473,-1.0437,-1.0334,-1.0318,-1.0379,-1.0376,-1.0233,-1.0219,-1.0206,-1.0149,-1.0149,-1.0143,-1.0139,-0.9984,-0.9984,-0.9983,0,0,0,0,0,0,-1.0717,-1.0698,-1.0524,-1.0594,-1.0571,-1.0488,-1.0448,-1.0434,-1.0403,-1.0317,-1.0301,-1.0363,-1.0233,-1.0215,-1.0152,-1.0142,-1.014,-1.0134,-0.9985,-0.9984,-0.9984,-1.0035,0,0,0,0,0,0,-1.0724,-1.07,-1.0684,-1.0595,-1.0567,-1.0474,-1.0447,-1.0431,-1.0392,-1.0387,-1.0298,-1.0283,-1.0232,-1.0162,-1.0146,-1.0133,-1.0129,-0.9985,-0.9984,-0.9984,-1.0034,-1.0037,-1.0039,0,0,0,0,0,-1.0732,-1.0704,-1.0684,-1.0664,-1.0546,-1.0473,-1.0457,-1.04,-1.0392,-1.0374,-1.0319,-1.0286,-1.0147,-1.0156,-1.0137,-1.0123,-0.9985,-0.9985,-0.9984,-1.0033,-1.0036,-1.0039,0,0,0,0,0,0,-1.0794,-1.0691,-1.0667,-1.061,-1.0551,-1.0461,-1.0437,-1.0405,-1.0347,-1.0344,-1.0274,-1.0255,-1.0198,-1.0154,-1.0167,-1.0076,-1.0063,-1.0058,-1.0107,-1.0109,-1.0111,-1.0123,-1.0124,0,0,0,0,0,-1.0801,-1.0752,-1.0664,-1.0622,-1.0594,-1.0521,-1.0487,-1.0448,-1.0384,-1.0358,-1.0298,-1.0236,-1.0178,-1.0141,-1.0083,-1.0028,-1.0006,-1.0008,-1.0011,-1.0013,-1.001,-0.9976,-0.9976,-0.9981,-0.9981,-0.9981,0,0,-1.0814,-1.0752,-1.0725,-1.0633,-1.0582,-1.0532,-1.05,-1.0448,-1.041,-1.035,-1.0287,-1.0241,-1.0167,-1.0107,-1.0078,-1.0069,-1.0004,-1.0012,-1.0015,-1.0009,-0.9975,-0.9975,-0.9974,-0.998,-0.998,-0.998,0,0,-1.0813,-1.0762,-1.0721,-1.0671,-1.0596,-1.0547,-1.0538,-1.0453,-1.042,-1.0356,-1.031,-1.0262,-1.0164,-1.0113,-1.0075,-1.0054,-1.0021,-1.0037,-1.0049,-1.0017,-1.0017,-1.0016,-1.0008,-1.0006,-1.0034,-1.0034,-1.0035,0,-1.0839,-1.0762,-1.0703,-1.0654,-1.0614,-1.0559,-1.0515,-1.047,-1.0379,-1.0352,-1.0344,-1.0219,-1.0166,-1.0093,-1.0089,-1.0059,-1.0045,-1.0047,-1.0022,-1.0021,-1.0019,-1.0011,-1.0008,-1.0037,-1.0037,-1.0036,-1.0036,0,-1.0798,-1.0745,-1.072,-1.0635,-1.0593,-1.0547,-1.048,-1.0443,-1.0408,-1.0361,-1.0296,-1.023,-1.0157,-1.0137,-1.0102,-1.0059,-1.0056,-1.0036,-1.0021,-1.0022,-1.0013,-1.0009,-1.004,-1.0039,-1.0039,-1.0038,0,0,-1.083,-1.0713,-1.0705,-1.0665,-1.0578,-1.0536,-1.0487,-1.0417,-1.0387,-1.0326,-1.0283,-1.0201,-1.0182,-1.0138,-1.0097,-1.0069,-1.0056,-1.0052,-1.0049,-1.0054,-1.0004,-1.0019,-1.0016,-1.0034,-1.0033,-1.0033,-1.001,0,-1.0816,-1.0727,-1.0672,-1.0605,-1.0555,-1.0502,-1.0459,-1.0401,-1.0355,-1.0305,-1.0254,-1.0197,-1.0176,-1.0149,-1.012,-1.0064,-1.0045,-1.0065,-0.9991,-0.999,-1.0011,-1.0011,-1.0027,-1.0009,-1.0006,-1.0005,-1.0005,0,-1.0788,-1.0729,-1.0657,-1.0575,-1.0552,-1.0515,-1.0446,-1.04,-1.0332,-1.03,-1.0252,-1.021,-1.0155,-1.0146,-1.0068,-1.0083,-1.005,-1.0018,-1.0016,-1.0006,-0.9997,-1.0001,-1.0002,-0.9999,-0.9999,-0.9999,-1.0,0,-1.0818,-1.0721,-1.0665,-1.0633,-1.0536,-1.0511,-1.047,-1.0402,-1.0363,-1.0303,-1.0276,-1.021,-1.0174,-1.0123,-1.0064,-1.0063,-0.9992,-0.9978,-0.9964,-0.9965,-0.995,-0.9952,-0.9945,-0.9931,-0.9931,-0.9931,-0.9931,0,-1.0807,-1.0765,-1.0677,-1.0643,-1.0594,-1.0531,-1.0484,-1.0437,-1.0378,-1.0332,-1.0282,-1.0241,-1.0166,-1.0115,-1.0068,-1.0011,-0.9995,-0.9967,-0.9955,-0.9971,-0.9975,-0.9947,-0.9947,-0.993,-0.993,-0.9931,-0.9931,0,-1.0832,-1.0771,-1.0707,-1.0621,-1.0598,-1.0566,-1.0492,-1.0456,-1.0408,-1.0351,-1.0334,-1.0258,-1.0195,-1.0132,-1.0047,-1.0016,-0.9959,-0.9943,-0.9983,-0.9976,-0.9964,-0.9966,-0.9939,-0.9932,-0.9924,-0.9925,-0.9925,0,-1.0829,-1.0795,-1.0706,-1.0672,-1.0632,-1.0579,-1.054,-1.0476,-1.0437,-1.0357,-1.0331,-1.0264,-1.0208,-1.011,-1.0047,-0.9981,-0.9963,-0.9958,-0.9952,-0.9969,-0.9961,-0.9964,-0.9959,-0.996,-0.996,-0.9961,-0.9961,0,-1.0829,-1.0801,-1.0746,-1.0681,-1.0636,-1.0581,-1.0525,-1.05,-1.0426,-1.0384,-1.032,-1.0276,-1.019,-1.0124,-1.0052,-1.0007,-0.9971,-0.9963,-0.9956,-0.9972,-0.9995,-0.9981,-0.9988,-0.9964,-0.9964,-0.9963,-0.9963,-0.9963,-1.0838,-1.0806,-1.0738,-1.0679,-1.063,-1.0578,-1.054,-1.0488,-1.0434,-1.0359,-1.0325,-1.026,-1.0192,-1.0091,-1.0048,-0.9995,-0.9985,-0.9976,-0.9973,-0.9971,-0.9974,-1.0005,-0.9982,-0.9982,-0.9981,-0.9981,-0.9981,0,-1.0836,-1.0789,-1.0736,-1.0659,-1.0612,-1.0584,-1.052,-1.0482,-1.0426,-1.0366,-1.0312,-1.0238,-1.0174,-1.0106,-1.0038,-1.0009,-0.9991,-0.9993,-0.9994,-0.9984,-0.9988,-1.0,-1.0009,-1.0009,-1.0009,-1.0009,-1.0009,-1.0009,-1.0828,-1.0772,-1.0736,-1.0654,-1.0607,-1.0544,-1.051,-1.0462,-1.0414,-1.0334,-1.0281,-1.0237,-1.0174,-1.0101,-1.0041,-1.0022,-0.9999,-1.0006,-0.9983,-0.9986,-0.9984,-0.9982,-0.9994,-1.0002,-1.0002,-0.9984,-0.9983,-0.9983]},{"header":{"parameterUnit":"m.s-1","parameterCategory":1,"la1":30.2991,"la2":30.254,"lo1":-89.0895,"lo2":-89.0444,"dy":0.0017,"dx":0.0017,"nx":28,"ny":28,"refTime":"2023-03-30T15:00:00:Z","depth":0,"parameterNumber":3,"parameterNumberName":"V-component_of_WINDS"},"data":[0,0,0,0,0,0,0,0,0,0,0,0,0,0,0,0,0,0,0,0,0,0,0,0,0,0,0,0,0,0,0,0,0,0,0,0,0,0,0,0,0,0,0,0,0,0,0,0,0,0,0,0,0,0,0,0,0,0,4.9693,4.9694,0,4.9748,4.9749,4.975,4.9723,4.9722,4.972,4.9719,4.9769,4.9772,4.9775,0,0,0,0,0,0,0,0,0,0,0,0,0,4.9559,4.9561,4.9693,4.9694,4.9694,4.9748,4.9749,4.975,4.9723,4.9722,4.972,4.9718,4.9769,4.9772,4.9775,0,0,0,0,0,0,0,0,0,0,0,0,0,4.9616,4.9562,4.9693,4.9688,4.9688,4.9748,4.9749,4.975,4.9724,4.9722,4.9719,4.9718,4.9768,4.9771,4.9775,4.9842,0,0,4.9787,4.9789,0,0,0,0,0,0,0,0,4.9613,4.9621,4.9688,4.9688,4.9689,4.9727,4.972,4.9781,4.9724,4.971,4.9719,4.9717,4.9757,4.9761,4.9776,4.9844,4.9846,4.9788,4.979,4.9792,4.9793,0,0,0,0,0,0,0,4.9609,4.9618,4.9715,4.9689,4.9689,4.9681,4.9687,4.9732,4.9744,4.9711,4.9709,4.9717,4.9756,4.9772,4.9777,4.9847,4.9788,4.9791,4.9794,4.9795,4.9973,4.9975,0,0,0,0,0,0,4.9606,4.9615,4.9713,4.9716,4.9645,4.9685,4.9692,4.9717,4.9744,4.9746,4.9718,4.9715,4.9767,4.9772,4.9779,4.9859,4.9792,4.9796,4.9798,4.9971,4.9974,4.9976,0,0,0,0,0,0,4.9603,4.9615,4.9711,4.9665,4.9677,4.969,4.9718,4.9719,4.9735,4.9749,4.9751,4.9733,4.9765,4.9773,4.9827,4.986,4.9797,4.9801,4.9968,4.9972,4.9975,5.002,0,0,0,0,0,0,4.9599,4.9614,4.964,4.9666,4.968,4.976,4.972,4.9721,4.9743,4.9739,4.9763,4.9765,4.9764,4.9821,4.9831,4.9865,4.9804,4.9965,4.997,4.9974,5.0015,5.0024,5.0032,0,0,0,0,0,4.9595,4.9649,4.9642,4.9654,4.9713,4.9762,4.9769,4.9769,4.9745,4.9771,4.9781,4.9764,4.9855,4.9827,4.9838,4.9873,4.9963,4.9968,4.9973,5.0011,5.0023,5.0032,0,0,0,0,0,0,4.9624,4.9652,4.9645,4.971,4.9734,4.9757,4.979,4.978,4.981,4.9805,4.9801,4.9807,4.9863,4.9873,4.9841,4.9939,4.9905,4.9913,4.9931,4.9941,4.9949,4.9946,4.9807,0,0,0,0,0,4.9639,4.9678,4.9699,4.9755,4.9768,4.9777,4.9798,4.9796,4.982,4.9829,4.9842,4.9864,4.9898,4.992,4.9952,5.0017,5.0021,5.0046,5.0055,5.0062,5.0068,5.0104,5.0115,4.9993,4.9993,4.9993,0,0,4.9668,4.9689,4.9713,4.9761,4.978,4.9819,4.9785,4.9827,4.9856,4.9835,4.9887,4.9898,4.9922,4.9982,5.0009,4.9992,5.0103,5.0068,5.0074,5.0077,5.011,5.0122,5.0132,4.9997,4.9996,4.9996,0,0,4.9742,4.9762,4.9811,4.9831,4.986,4.9866,4.9878,4.9904,4.991,4.9964,4.9949,4.9981,5.0039,5.0058,5.0075,5.0158,5.0144,5.0168,5.0211,5.0246,5.0256,5.0265,5.0294,5.0305,5.0174,5.0174,5.0175,0,4.9775,4.9835,4.9836,4.9881,4.9902,4.9888,4.9936,4.9955,4.9992,5.0006,4.9988,5.0061,5.0076,5.0141,5.0162,5.0176,5.0188,5.0165,5.0255,5.0263,5.0271,5.03,5.0311,5.0177,5.0177,5.0177,5.0176,0,4.9874,4.9916,4.9951,4.9991,5.0016,5.0062,5.0069,5.0094,5.0091,5.0098,5.0152,5.0171,5.0206,5.0221,5.0216,5.0286,5.0274,5.0256,5.0221,5.0286,5.0312,5.0323,5.0181,5.018,5.0179,5.0179,0,0,4.9967,5.0009,5.0022,5.004,5.0072,5.0103,5.0149,5.0186,5.0208,5.0234,5.0271,5.0322,5.0305,5.0324,5.0321,5.0352,5.0417,5.0329,5.033,5.0345,5.0495,5.0509,5.0522,5.0409,5.0411,5.0412,5.0493,0,5.0044,5.0126,5.0129,5.0203,5.0242,5.0229,5.0268,5.0291,5.03,5.0333,5.0341,5.0377,5.0352,5.0364,5.0394,5.0403,5.0447,5.0397,5.0442,5.0444,5.0437,5.0536,5.055,5.0626,5.0503,5.0505,5.0506,0,5.0144,5.0177,5.0256,5.0284,5.03,5.0336,5.0371,5.0403,5.0428,5.0432,5.0455,5.0448,5.0493,5.0458,5.052,5.0486,5.0504,5.0511,5.0514,5.0518,5.0479,5.0542,5.0649,5.0661,5.0523,5.0521,5.052,0,5.0205,5.0268,5.0324,5.034,5.0374,5.04,5.0414,5.0438,5.0461,5.0491,5.0505,5.0539,5.0557,5.0583,5.0585,5.0559,5.0647,5.0612,5.0651,5.0651,5.067,5.0668,5.0782,5.0682,5.0681,5.0681,5.0681,0,5.0291,5.0339,5.0353,5.0387,5.0441,5.0444,5.0496,5.0509,5.0531,5.0566,5.0556,5.0588,5.0589,5.0623,5.0624,5.0675,5.0683,5.0687,5.0687,5.0688,5.0688,5.07,5.0695,5.0684,5.0683,5.0683,5.0682,0,5.0367,5.0378,5.0439,5.0467,5.0475,5.0514,5.0537,5.0569,5.0577,5.0622,5.0633,5.0645,5.0684,5.0689,5.0733,5.0734,5.0795,5.0789,5.0788,5.0787,5.0826,5.0822,5.095,5.0967,5.0856,5.0857,5.0858,0,5.0422,5.0459,5.0493,5.0517,5.0534,5.0573,5.0597,5.0601,5.0625,5.0659,5.0687,5.0725,5.0756,5.0818,5.083,5.0864,5.0859,5.0901,5.0863,5.0864,5.086,5.0858,5.0861,5.0909,5.091,5.0911,5.0912,0,5.0516,5.0521,5.0557,5.0596,5.0625,5.0655,5.0683,5.0703,5.071,5.0738,5.0779,5.0803,5.085,5.0888,5.0922,5.0935,5.0925,5.0924,5.0935,5.0936,5.0934,5.0936,5.0808,5.092,5.092,5.0919,5.0918,5.0918,5.0584,5.0617,5.0647,5.0687,5.071,5.0737,5.0769,5.0782,5.0817,5.0858,5.0857,5.0902,5.0927,5.0972,5.0988,5.1022,5.1008,5.1023,5.1027,5.1031,5.1035,5.0929,5.1028,5.1028,5.1027,5.1027,5.1027,0,5.0678,5.0697,5.0735,5.0776,5.0808,5.0798,5.0829,5.0856,5.0896,5.0922,5.0953,5.1001,5.1038,5.1053,5.1089,5.1114,5.111,5.1123,5.1121,5.1124,5.1046,5.1033,5.1126,5.1126,5.1126,5.1126,5.1126,5.1126,5.0731,5.0788,5.0796,5.0863,5.0881,5.0927,5.0946,5.097,5.099,5.1045,5.1077,5.1087,5.1108,5.1146,5.118,5.1183,5.1197,5.1212,5.1213,5.114,5.113,5.112,5.1108,5.1215,5.1215,5.1289,5.129,5.129]}]]